User: anonymous   Login
Location: Oshawa
(43.9000°N, 78.8670°W)
Time: 16:05:47
(UTC-05:00)
Language:

Cosmos 1953 Rocket - Orbit

View from above orbital plane
View from above orbital plane
View from above satellite
View from above satellite

Ground track
Ground track

The orbit data is extracted from the following two-line orbital elements,

1 19211U 88050B   14326.72337618  .00000424  00000-0  49688-4 0  4060
2 19211 082.5262 359.0061 0020870 328.7387 170.3656 14.82543573427867
Epoch (UTC): 22 November 2014 17:21:39
Eccentricity: 0.0020870
inclination: 82.5262°
perigee height: 607 km
apogee height: 636 km
right ascension of ascending node: 359.0061°
argument of perigee: 328.7387°
revolutions per day: 14.82543573
mean anomaly at epoch: 170.3656°
orbit number at epoch: 42786

The dashed part of the orbit path shows where the satellite is in the earth's shadow,  

DLR